Location: Cisewo
(53.3833°N, 14.9000°E)
Time: 11:17:47
(UTC+00:00)

Cosmos 1812 - Pass Details

Date: 18 April 2021
Orbit: 516 x 520 km, 82.5° (Epoch: 15 May)

Event Time Altitude Azimuth Distance (km) Brightness Sun altitude
Exits shadow 23:10:24 43° 47° (NE) 745 3.7 -25.4°
Drops below altitude 10° 23:13:17 10° 18° (NNE) 1,767 6.4 -25.4°
Sets 23:15:27 0° 15° (NNE) 2,661 7.6 -25.4°
